Location: ????????
(55.7667°N, 37.4833°E)
Time: 03:15:11
(UTC+00:00)

Cosmos 2333 Rocket - Pass Details

Date: 19 May 2025
Orbit: 840 x 862 km, 70.8° (Epoch: 15 June)

Event Time Altitude Azimuth Distance (km) Brightness Sun altitude
Rises 18:36:08 0° 318° (NW) 3,448 8.3 -6.1°
Reaches altitude 10° 18:39:00 10° 331° (NNW) 2,506 6.4 -6.4°
Maximum altitude 18:43:52 27° 29° (NNE) 1,585 3.9 -6.8°
Drops below altitude 10° 18:48:42 10° 86° (E) 2,487 4.3 -7.2°
Sets 18:51:31 0° 99° (E) 3,416 4.9 -7.5°
